FENGYUN 1C DEB, 30652

Orbit data source: Space-Track

FENGYUN 1C DEB, 30652 is space debris in SSO originally from a launch on Mon, 10 May 1999 UTC launched from the Taiyaun Space Center, China (TSC). Fengyun 1C debris stems from the Chinese weather satellite Fengyun-1C, which was intentionally destroyed by a Chinese anti-satellite missile in 2007. This event dramatically increased the amount of space debris, with thousands of trackable fragments posing hazards to satellites and human spaceflight. The Fengyun 1C debris cloud has become a focal point in discussions about space sustainability and the need for international regulations to prevent the creation of new debris.

Loading next visibility...
Identifier
30652, 1999-025APJ
Orbit
SSO
Country
Flag of CNCN / PRC
Related business
Manufacturer
Unknown
Mission
Spacecraft
Bus & Motor
Unknown
Mass
Unknown
Launch date (UTC)
1999-05-10 (27 years ago)
Launch vehicle
Unknown
Launch site
Taiyaun Space Center, China (TSC)
Object type
Payload
Rocket body
Debris
Shape & HBR
Unknown shape, 0.1 m
Radar Cross Section
Small (<0.1 m²)

Expand to show TLE details & history
Last TLE update: 1 day ago

TLE from 1 day ago
0 FENGYUN 1C DEB
1 30652U 99025APJ 25312.07426134  .00000028  00000-0  41965-4 0  9990
2 30652  98.7900 346.1417 0008400  11.3145  45.1409 14.07786453962065
Epoch: 2025-11-08T01:46Z
TLE epoch observation values (Epoch: 2025-11-08T01:46:56.179Z)
Latitude
55.619°
Longitude
-101.09269°
Altitude
871.869 km
Speed
7.424 km/s
True Right ascension
22h 12m 36s
True Declination
55° 27' 40"
Sunlit
Object was in daylight at epoch
Visualization orbit readout
Latitude
Unknown
Longitude
Unknown
Altitude
Unknown
Speed
Unknown
Apparent Right ascension
Unknown
Apparent Declination
Unknown
Sunlit
N/A
Visualization observer readout
Local Sidereal Time
05:20:04
Azimuth
Unknown
Elevation
Unknown
Doppler factor
Unknown
Orbital elements
Apogee altitude
870.219 km
Perigee altitude
858.052 km
Semi-major axis
7,242.272 km
Eccentricity
0.00084
Inclination
98.79°
RAAN
346.1417°
Arg. of periapsis
11.3145°
True anomaly
45.20918°
Mean anomaly
45.1409°
Eccentric anomaly
45.17504°
Mean motion
3.52153 °/min
Orbital period
102.23 mins
BSTAR
0.000041965
Loading maneuver chart data...
Computing Atmospheric mass density...

Documentation

Showing up to 5 results
|